This demonstration page uses our WeatherBlox Daily Observations layout. Learn more.

Left ArrowRight Arrow

39.01783, -85.05884

Hourly Observations for May 5, 2018

Temp ( °F °C ) Dew Point ( °F °C ) Humidity (%) Winds ( mph kmh ) Pressure ( in mb ) Visibility ( mi km ) Precip ( " mm )
12:52 am 00:52 Cloudy 64 17.8 56 13.3 75 75 ENE 6 9 30.05 1018 10 16 0.00 0.00
1:52 am 01:52 Cloudy 64 17.8 55 12.8 73 73 NE 8 13 30.04 1017 10 16 0.00 0.00
2:52 am 02:52 Cloudy 63 17.2 54 12.2 73 73 NE 6 9 30.04 1017 10 16 0.00 0.00
3:52 am 03:52 Cloudy 62 16.7 54 12.2 75 75 ENE 7 11 30.03 1017 10 16 0.00 0.00
4:52 am 04:52 Cloudy 62 16.7 54 12.2 75 75 ENE 5 7 30.04 1017 10 16 0.00 0.00
5:52 am 05:52 Cloudy 61 16.1 52 11.1 72 72 NE 7 11 30.05 1018 10 16 0.00 0.00
6:52 am 06:52 Mostly Cloudy 61 16.1 51 10.6 70 70 NE 8 13 30.06 1018 10 16 0.00 0.00
7:52 am 07:52 Cloudy 61 16.1 51 10.6 70 70 E 6 9 30.07 1018 10 16 0.00 0.00
8:52 am 08:52 Cloudy 61 16.1 51 10.6 70 70 E 8 13 30.06 1018 10 16 0.00 0.00
9:52 am 09:52 Cloudy 62 16.7 50 10 65 65 NE 6 9 30.07 1018 10 16 0.00 0.00
10:52 am 10:52 Cloudy 62 16.7 52 11.1 70 70 E 7 11 30.06 1018 10 16 0.00 0.03
11:52 am 11:52 Cloudy with Light Rain 64 17.8 54 12.2 70 70 E 3 6 30.06 1018 10 16 0.00 0.03
12:52 pm 12:52 Cloudy with Light Rain 63 17.2 57 13.9 81 81 ENE 5 7 30.05 1018 8 13 0.01 0.25
1:52 pm 13:52 Cloudy with Light Rain 62 16.7 58 14.4 86 86 ESE 8 13 30.04 1017 7 11 0.02 0.51
2:52 pm 14:52 Cloudy with Light Rain 62 16.7 59 15 90 90 ESE 9 15 30.03 1017 7 11 0.01 0.25
2:55 pm 14:55 Cloudy with Light Rain 62 16.7 59 15 90 90 ESE 8 13 30.06 1018 7 11 0.00 0.03
3:26 pm 15:26 Cloudy with Light Rain 62 16.7 59 15 90 90 ESE 8 13 30.03 1017 7 11 0.01 0.25
3:52 pm 15:52 Cloudy with Light Rain 62 16.7 59 15 90 90 E 5 7 30.03 1017 7 11 0.01 0.25
4:47 pm 16:47 Cloudy with Light Rain 63 17 59 15 88 88 E 6 9 30.03 1017 6 10 0.02 0.51
4:52 pm 16:52 Cloudy with Light Rain 62 16.7 60 15.6 93 93 E 7 11 30.01 1016 6 10 0.03 0.76
5:14 pm 17:14 Cloudy with Light Rain 62 16.7 60 15.6 93 93 E 6 9 30.00 1016 7 11 0.01 0.25
5:52 pm 17:52 Cloudy with Light Rain 62 16.7 59 15 90 90 E 6 9 30.00 1016 8 13 0.01 0.25
6:52 pm 18:52 Cloudy with Light Rain 62 16.7 59 15 90 90 NNE 5 7 29.98 1015 9 14 0.03 0.76
7:52 pm 19:52 Cloudy 61 16.1 59 15 93 93 E 7 11 29.97 1015 8 13 0.00 0.03
8:36 pm 20:36 Cloudy 61 16.1 59 15 93 93 ENE 7 11 30.00 1016 7 11 0.00 0.00
8:52 pm 20:52 Cloudy 61 16.1 59 15 93 93 E 8 13 29.98 1015 7 11 0.00 0.00
8:54 pm 20:54 Cloudy 61 16.1 59 15 93 93 E 9 15 30.00 1016 7 11 0.00 0.00
9:52 pm 21:52 Cloudy 60 15.6 58 14.4 93 93 ESE 9 15 29.98 1015 7 11 0.00 0.00
10:01 pm 22:01 Cloudy 60 15.6 58 14.4 93 93 ESE 7 11 30.00 1016 8 13 0.00 0.00
10:52 pm 22:52 Cloudy 59 15 56 13.3 90 90 E 5 7 29.99 1016 10 16 0.00 0.00
11:52 pm 23:52 Cloudy 59 15 54 12.2 83 83 NNE 5 7 29.97 1015 10 16 0.00 0.00

Powered by AerisWeather